{"data":{"norad_id":39084,"intl_designator":"2013-008A","name":"LANDSAT 8","alt_names":[],"object_type":"PAYLOAD","status":"ACTIVE","operator":null,"country":"US","launch_date":"2013-02-11","launch_site_code":"AFWTR","launch_vehicle":null,"mission":null,"orbit_class":"UNKNOWN","rcs_meters":7.1149,"size_class":null,"mass_kg":null,"dimensions":null,"purposes":["earth_obs"],"wikipedia_slug":null,"has_3d_model":false,"image_url":null,"decayed_at":null,"tle_current":{"epoch":"2026-05-25T03:47:05.625600Z","epoch_age_seconds":75563,"freshness":"FRESH","line1":"1 39084U 13008A   26145.15770400  .00000242  00000+0  63678-4 0  9999","line2":"2 39084  98.1837 215.5845 0001347 102.7202 257.4147 14.57118622694546","mean_motion":14.57118622,"eccentricity":0.0001347,"inclination_deg":98.1837,"raan_deg":215.5845,"arg_perigee_deg":102.7202,"mean_anomaly_deg":257.4147,"bstar":6.3678e-5,"rev_number":69454,"period_min":98.825173068168,"perigee_km":701.53926345971,"apogee_km":703.44678518826,"semimajor_km":7080.630024324,"source":"CELESTRAK","updated_at":"2026-05-25T13:38:12.781581Z"}}}